Albion, NE

2:36 AM CDT on June 29, 2017 (GMT -0500)
Albion Municipal

Weather History for KBVN - March, 2013

Change the Weather History Date:

Monday, March 11, 2013

  Actual Average (KOFK) Record (KOFK)
Temperature  
Mean Temperature 31 °F -  
Max Temperature 50 °F 45 °F 74 °F (1900)
Min Temperature 12 °F 25 °F -17 °F (1948)
Degree Days  
Heating Degree Days 34    
Moisture  
Dew Point 18 °F    
Average Humidity 69    
Maximum Humidity 84    
Minimum Humidity 50    
Precipitation  
Precipitation 0.00 in - - ()
Sea Level Pressure  
Sea Level Pressure 29.91 in    
Wind  
Wind Speed 11 mph (NW)    
Max Wind Speed 21 mph    
Max Gust Speed 29 mph    
Visibility 10 miles    
Events      
Averages and records for this station are not official NWS values.
T = Trace of Precipitation, MM = Missing Value Source: NWS Daily Summary

Daily Weather History Graph

Daily Weather History Graph

Search for Another Location

Airport or City:

Trip Planner

Search our weather history database for the weather conditions in past years. The results will help you decide how hot, cold, wet, or windy it might be!

Date:

Astronomy

Mar. 11, 2013 Rise Set
Actual Time 7:50 AM CDT 7:34 PM CDT
Civil Twilight 7:22 AM CDT 8:02 PM CDT
Nautical Twilight 6:50 AM CDT 8:34 PM CDT
Astronomical Twilight 6:17 AM CDT 9:07 PM CDT
Moon 7:24 AM CDT (3/11) 7:49 PM CDT (3/11)
Length of Visible Light 12h 39m
Length of Day
11h 44m
Waning Crescent, 0% of the Moon is Illuminated
Mar 11
Waning Crescent
Mar 11
New
Mar 19
First Quarter
Mar 27
Full
Apr 2
Last Quarter

Hourly Weather History & Observations

Time (CDT) Temp. Windchill Dew Point Humidity Pressure Visibility Wind Dir Wind Speed Gust Speed Precip Events Conditions
12:35 AM 19.4 °F 6.0 °F 14.0 °F 80% 29.98 in 10.0 mi NNW 13.8 mph 27.6 mph N/A   Overcast
12:55 AM 18.5 °F 6.1 °F 13.1 °F 79% 29.97 in 10.0 mi NNW 11.5 mph 17.3 mph N/A   Scattered Clouds
1:15 AM 18.0 °F 3.6 °F 12.9 °F 81% 29.96 in 10.0 mi NNW 15.0 mph - N/A   Clear
1:35 AM 17.6 °F 2.7 °F 12.6 °F 81% 29.96 in 10.0 mi NNW 16.1 mph 21.9 mph N/A   Clear
2:15 AM 17.4 °F 2.9 °F 12.2 °F 80% 29.96 in 10.0 mi NNW 15.0 mph 27.6 mph N/A   Clear
2:35 AM 17.1 °F 1.5 °F 11.7 °F 79% 29.96 in 10.0 mi NNW 17.3 mph 21.9 mph N/A   Clear
2:55 AM 16.5 °F 0.8 °F 11.3 °F 80% 29.96 in 10.0 mi NNW 17.3 mph 23.0 mph N/A   Clear
3:15 AM 16.3 °F 3.4 °F 11.1 °F 80% 29.95 in 10.0 mi NNW 11.5 mph 19.6 mph N/A   Clear
3:35 AM 15.8 °F 0.9 °F 10.9 °F 81% 29.94 in 10.0 mi NNW 15.0 mph 18.4 mph N/A   Clear
3:55 AM 15.6 °F 0.6 °F 10.6 °F 80% 29.92 in 10.0 mi NNW 15.0 mph 20.7 mph N/A   Clear
4:15 AM 15.4 °F 2.3 °F 10.4 °F 80% 29.93 in 10.0 mi NNW 11.5 mph 21.9 mph N/A   Clear
4:35 AM 15.1 °F 1.1 °F 10.4 °F 82% 29.92 in 10.0 mi NNW 12.7 mph 16.1 mph N/A   Clear
4:55 AM 14.9 °F 2.3 °F 10.2 °F 82% 29.92 in 10.0 mi NNW 10.4 mph - N/A   Clear
5:15 AM 14.7 °F 4.8 °F 10.2 °F 82% 29.91 in 10.0 mi NNW 6.9 mph - N/A   Clear
5:35 AM 14.5 °F 2.7 °F 10.0 °F 82% 29.91 in 10.0 mi NNW 9.2 mph - N/A   Clear
5:55 AM 14.5 °F 1.9 °F 10.0 °F 82% 29.92 in 10.0 mi NNW 10.4 mph - N/A   Clear
6:15 AM 14.5 °F 2.7 °F 10.0 °F 82% 29.93 in 10.0 mi NW 9.2 mph - N/A   Clear
6:35 AM 13.5 °F 3.3 °F 9.3 °F 84% 29.93 in 10.0 mi NW 6.9 mph - N/A   Clear
6:55 AM 12.9 °F 2.6 °F 8.8 °F 84% 29.93 in 10.0 mi NW 6.9 mph - N/A   Clear
7:15 AM 13.1 °F 2.8 °F 9.0 °F 84% 29.94 in 10.0 mi NW 6.9 mph - N/A   Clear
7:35 AM 13.1 °F 1.8 °F 8.8 °F 83% 29.94 in 10.0 mi NNW 8.1 mph - N/A   Clear
7:55 AM 13.1 °F 7.1 °F 8.8 °F 83% 29.93 in 10.0 mi NNW 3.5 mph - N/A   Clear
8:15 AM 14.0 °F 5.1 °F 9.5 °F 82% 29.94 in 10.0 mi NW 5.8 mph - N/A   Clear
8:35 AM 14.9 °F 1.6 °F 10.0 °F 81% 29.93 in 10.0 mi NW 11.5 mph - N/A   Clear
8:55 AM 15.8 °F 5.1 °F 10.4 °F 79% 29.93 in 10.0 mi NW 8.1 mph - N/A   Clear
9:15 AM 17.2 °F 6.8 °F 11.3 °F 78% 29.92 in 10.0 mi NW 8.1 mph - N/A   Clear
9:35 AM 18.5 °F 6.8 °F 11.5 °F 74% 29.92 in 10.0 mi NW 10.4 mph - N/A   Clear
9:55 AM 19.2 °F 10.2 °F 11.7 °F 72% 29.92 in 10.0 mi NW 6.9 mph - N/A   Clear
10:15 AM 20.8 °F 12.1 °F 11.1 °F 66% 29.91 in 10.0 mi NNW 6.9 mph - N/A   Clear
10:35 AM 22.1 °F 12.0 °F 11.8 °F 65% 29.92 in 10.0 mi NW 9.2 mph - N/A   Clear
10:55 AM 23.9 °F 15.0 °F 12.0 °F 61% 29.92 in 10.0 mi NW 8.1 mph - N/A   Clear
11:15 AM 25.2 °F 17.3 °F 12.0 °F 58% 29.92 in 10.0 mi NW 6.9 mph - N/A   Clear
11:35 AM 26.6 °F 18.2 °F 12.7 °F 56% 29.92 in 10.0 mi NW 8.1 mph - N/A   Clear
11:55 AM 28.2 °F 21.0 °F 13.6 °F 54% 29.92 in 10.0 mi NW 6.9 mph - N/A   Scattered Clouds
12:15 PM 28.4 °F 22.2 °F 14.0 °F 55% 29.91 in 10.0 mi West 5.8 mph - N/A   Mostly Cloudy
12:35 PM 29.1 °F 22.1 °F 14.7 °F 55% 29.90 in 10.0 mi WNW 6.9 mph - N/A   Scattered Clouds
12:55 PM 31.5 °F 26.8 °F 16.3 °F 54% 29.90 in 10.0 mi WNW 4.6 mph - N/A   Clear
1:15 PM 32.4 °F 26.0 °F 17.4 °F 54% 29.89 in 10.0 mi West 6.9 mph - N/A   Clear
1:35 PM 32.9 °F 26.7 °F 18.9 °F 56% 29.87 in 10.0 mi West 6.9 mph - N/A   Clear
1:55 PM 33.6 °F 27.5 °F 21.7 °F 62% 29.87 in 10.0 mi WSW 6.9 mph - N/A   Clear
2:15 PM 35.1 °F 30.1 °F 23.4 °F 62% 29.86 in 10.0 mi WNW 5.8 mph - N/A   Mostly Cloudy
2:35 PM 36.5 °F 32.7 °F 25.7 °F 65% 29.85 in 10.0 mi SW 4.6 mph - N/A   Scattered Clouds
2:55 PM 38.5 °F 32.1 °F 27.0 °F 63% 29.83 in 10.0 mi West 9.2 mph - N/A   Clear
3:15 PM 41.0 °F 35.8 °F 27.5 °F 59% 29.83 in 10.0 mi WSW 8.1 mph - N/A   Clear
3:35 PM 43.2 °F 39.0 °F 29.3 °F 58% 29.82 in 10.0 mi West 6.9 mph - N/A   Clear
3:55 PM 45.0 °F 40.6 °F 29.5 °F 55% 29.82 in 10.0 mi WSW 8.1 mph - N/A   Clear
4:15 PM 46.9 °F - 28.9 °F 50% 29.80 in 10.0 mi WSW 8.1 mph - N/A   Clear
4:35 PM 48.6 °F - 30.6 °F 50% 29.80 in 10.0 mi WSW 6.9 mph - N/A   Clear
4:55 PM 50.5 °F - 32.5 °F 50% 29.81 in 10.0 mi NW 18.4 mph 27.6 mph N/A   Clear
5:15 PM 49.5 °F - 31.8 °F 51% 29.82 in 10.0 mi NW 20.7 mph 28.8 mph N/A   Clear
5:35 PM 48.4 °F - 30.6 °F 50% 29.83 in 10.0 mi NNW 19.6 mph 27.6 mph N/A   Clear
6:15 PM 45.5 °F 38.9 °F 30.2 °F 55% 29.86 in 10.0 mi NNW 15.0 mph 23.0 mph N/A   Clear
6:35 PM 43.7 °F 36.9 °F 30.0 °F 59% 29.87 in 10.0 mi North 13.8 mph 17.3 mph N/A   Clear
6:55 PM 42.1 °F 35.2 °F 28.9 °F 60% 29.88 in 10.0 mi North 12.7 mph 18.4 mph N/A   Clear
7:15 PM 40.6 °F 35.4 °F 28.6 °F 62% 29.88 in 10.0 mi North 8.1 mph - N/A   Clear
7:35 PM 39.4 °F 33.2 °F 28.8 °F 66% 29.90 in 10.0 mi North 9.2 mph - N/A   Clear
7:55 PM 39.0 °F 32.3 °F 28.2 °F 65% 29.91 in 10.0 mi North 10.4 mph - N/A   Clear
8:15 PM 38.8 °F 32.1 °F 27.7 °F 64% 29.91 in 10.0 mi North 10.4 mph 16.1 mph N/A   Clear
8:35 PM 37.6 °F 33.1 °F 28.0 °F 68% 29.92 in 10.0 mi NNW 5.8 mph - N/A   Clear
8:55 PM 36.7 °F 30.5 °F 28.4 °F 72% 29.93 in 10.0 mi NNW 8.1 mph - N/A   Scattered Clouds
9:35 PM 36.5 °F 29.7 °F 26.8 °F 68% 29.95 in 10.0 mi NNW 9.2 mph - N/A   Clear
9:55 PM 36.0 °F 28.5 °F 25.9 °F 67% 29.95 in 10.0 mi NNW 10.4 mph 16.1 mph N/A   Scattered Clouds
10:15 PM 35.6 °F 29.2 °F 25.0 °F 65% 29.97 in 10.0 mi NNW 8.1 mph - N/A   Scattered Clouds
10:35 PM 33.4 °F 26.6 °F 25.5 °F 73% 29.98 in 10.0 mi NNW 8.1 mph - N/A   Clear
10:55 PM 32.0 °F 24.2 °F 25.2 °F 76% 29.99 in 10.0 mi NW 9.2 mph - N/A   Clear
11:15 PM 31.1 °F 25.4 °F 25.2 °F 79% 30.00 in 10.0 mi NNW 5.8 mph - N/A   Clear
11:35 PM 31.6 °F 28.3 °F 24.8 °F 76% 30.00 in 10.0 mi NW 3.5 mph - N/A   Clear
11:55 PM 30.9 °F 27.5 °F 24.4 °F 77% 30.00 in 10.0 mi NNW 3.5 mph - N/A   Clear